FW2848 Weather Reports


Display with metric or nautical units.
time (UTC)temp
F
wind
direction
speed
MPH
gust
MPH
rain 1hr
in
rain 24hr
in
rain mn
in
humidity
%
barometer
mb
20191112051233 26 1 17.0 32.0 0.00 0.00 0.00 63 1035.9
20191112050232 27 16 18.0 30.0 0.00 0.00 0.00 62 1035.8
20191112045233 27 16 19.0 26.0 0.00 0.00 0.00 64 1035.7
20191112044231 27 345 15.0 23.0 0.00 0.00 0.00 64 1035.7
20191112043232 27 338 13.0 23.0 0.00 0.00 0.00 64 1035.6
20191112042230 27 347 15.0 27.0 0.00 0.00 0.00 64 1035.8
20191112041231 28 31 17.0 28.0 0.00 0.00 0.00 63 1035.5
20191112040231 28 351 19.0 28.0 0.00 0.00 0.00 62 1035.6
20191112035230 28 336 17.0 26.0 0.00 0.00 0.00 63 1035.6
20191112034230 28 351 17.0 26.0 0.00 0.00 0.00 64 1035.4
20191112033231 28 350 13.0 22.0 0.00 0.00 0.00 68 1035.2
20191112032229 28 21 12.0 18.0 0.00 0.00 0.00 69 1035.3
20191112031229 28 0 11.0 19.0 0.00 0.00 0.00 69 1035.2
20191112030229 28 357 11.0 21.0 0.00 0.00 0.00 69 1034.9
20191112025229 28 31 14.0 20.0 0.00 0.00 0.00 68 1035.0
20191112024229 28 3 12.0 22.0 0.00 0.00 0.00 68 1035.0
20191112023227 28 32 10.0 24.0 0.00 0.00 0.00 68 1035.1
20191112022229 28 18 12.0 23.0 0.00 0.00 0.00 68 1035.0
20191112021229 28 324 16.0 28.0 0.00 0.00 0.00 66 1034.8
20191112020227 28 27 19.0 29.0 0.00 0.00 0.00 66 1034.7
20191112015228 29 358 17.0 32.0 0.00 0.00 0.00 67 1034.3
20191112014227 29 341 18.0 30.0 0.00 0.00 0.00 67 1034.2
20191112013228 29 16 17.0 24.0 0.00 0.00 0.00 68 1034.0
20191112012227 29 341 20.0 30.0 0.00 0.00 0.00 68 1034.3
20191112011226 29 23 19.0 29.0 0.00 0.00 0.00 69 1033.9
20191112010227 29 7 18.0 30.0 0.00 0.00 0.00 70 1033.4
20191112005227 29 353 18.0 31.0 0.00 0.00 0.00 70 1033.3
20191112004226 29 358 19.0 33.0 0.00 0.00 0.00 69 1032.9
20191112003225 29 331 19.0 32.0 0.00 0.00 0.00 71 1032.6
20191112002227 29 16 20.0 30.0 0.00 0.00 0.00 71 1032.3
20191112001225 29 348 14.0 26.0 0.00 0.00 0.00 73 1032.5
20191112000225 29 354 17.0 29.0 0.00 0.00 0.00 73 1032.0
20191111235225 29 0 17.0 29.0 0.00 0.00 0.00 73 1032.0
20191111234225 29 351 20.0 30.0 0.00 0.00 0.00 73 1031.8
20191111233224 29 0 24.0 32.0 0.00 0.00 0.00 73 1031.6
20191111232223 29 25 19.0 29.0 0.00 0.00 0.00 76 1031.7
20191111231224 29 7 16.0 28.0 0.00 0.00 0.00 76 1031.5
20191111230224 29 11 14.0 26.0 0.00 0.00 0.00 78 1031.3
20191111225224 29 6 18.0 30.0 0.00 0.00 0.00 78 1031.1
20191111224223 29 11 19.0 34.0 0.00 0.00 0.00 78 1030.9
20191111223222 28 340 22.0 30.0 0.00 0.00 0.00 81 1030.8
20191111222222 28 358 19.0 33.0 0.00 0.00 0.00 82 1030.8
20191111221223 28 1 15.0 31.0 0.00 0.00 0.00 85 1030.7
20191111220222 28 75 17.0 30.0 0.00 0.00 0.00 86 1030.0
20191111215222 28 7 17.0 31.0 0.00 0.00 0.00 88 1029.9
20191111214222 28 16 18.0 27.0 0.00 0.00 0.00 88 1029.5
20191111213222 28 16 18.0 33.0 0.00 0.00 0.00 86 1029.5
20191111212221 28 30 22.0 34.0 0.00 0.00 0.00 86 1029.4
20191111211221 28 4 22.0 31.0 0.00 0.00 0.00 86 1029.3
20191111210220 28 4 19.0 32.0 0.00 0.00 0.00 87 1029.3
20191111205220 29 348 21.0 32.0 0.00 0.00 0.00 88 1029.2
20191111204220 29 11 21.0 32.0 0.00 0.00 0.00 89 1029.0
20191111203220 29 353 23.0 32.0 0.00 0.00 0.00 89 1028.9
20191111202219 30 350 17.0 28.0 0.00 0.00 0.00 88 1029.0
20191111201220 29 34 22.0 32.0 0.00 0.00 0.00 87 1028.8
20191111200220 30 4 14.0 31.0 0.00 0.00 0.00 87 1028.3
20191111195221 29 336 22.0 32.0 0.00 0.00 0.00 87 1028.2
20191111194220 29 305 23.0 37.0 0.00 0.00 0.00 87 1028.1
20191111193218 29 344 22.0 36.0 0.00 0.00 0.00 87 1028.0
20191111192219 29 4 19.0 35.0 0.00 0.00 0.00 87 1028.0
20191111191219 30 1 25.0 36.0 0.00 0.00 0.00 86 1027.8
20191111190213 30 0 20.0 30.0 0.00 0.00 0.00 86 1027.6
20191111185209 30 11 20.0 31.0 0.00 0.00 0.00 86 1027.6
20191111184208 30 351 23.0 38.0 0.00 0.00 0.00 86 1027.7
20191111183206 30 41 21.0 38.0 0.00 0.00 0.00 87 1027.7
20191111182205 31 355 23.0 37.0 0.00 0.00 0.00 88 1027.4
20191111181203 31 32 20.0 34.0 0.00 0.00 0.00 88 1027.3
20191111180203 31 343 19.0 36.0 0.00 0.00 0.00 88 1027.4
20191111175203 32 3 23.0 36.0 0.00 0.00 0.00 88 1027.4
20191111174203 32 16 17.0 32.0 0.00 0.00 0.00 89 1027.1
20191111173201 32 8 23.0 34.0 0.00 0.00 0.00 89 1027.0
20191111172203 33 348 20.0 30.0 0.00 0.00 0.00 91 1026.8
20191111171203 33 28 20.0 32.0 0.00 0.00 0.00 91 1026.9
20191111170202 33 27 25.0 36.0 0.00 0.00 0.00 91 1026.6
20191111165202 34 1 23.0 39.0 0.00 0.00 0.00 91 1026.5
20191111164201 34 344 19.0 37.0 0.00 0.00 0.00 91 1026.1
20191111163202 34 357 25.0 35.0 0.00 0.00 0.00 91 1025.9
20191111162202 35 13 19.0 28.0 0.00 0.00 0.00 92 1025.4
20191111161202 36 348 19.0 32.0 0.00 0.00 0.00 92 1025.2
20191111160202 36 319 18.0 29.0 0.00 0.00 0.00 92 1024.7
20191111155202 36 1 24.0 39.0 0.00 0.00 0.00 91 1024.6
20191111154202 38 292 18.0 32.0 0.00 0.00 0.00 92 1024.2
20191111153201 38 357 22.0 36.0 0.00 0.00 0.00 91 1023.5
20191111152202 39 336 18.0 31.0 0.00 0.00 0.00 91 1023.0
20191111151202 40 37 18.0 33.0 0.00 0.00 0.00 90 1022.5
20191111150203 40 11 20.0 30.0 0.00 0.00 0.00 90 1022.4
20191111145202 41 333 22.0 31.0 0.00 0.00 0.00 90 1021.7
20191111144202 42 13 23.0 31.0 0.00 0.00 0.00 90 1021.3
20191111143202 43 327 23.0 34.0 0.00 0.00 0.00 89 1020.8
20191111142202 44 358 26.0 36.0 0.00 0.00 0.00 88 1020.2
20191111141203 45 347 20.0 33.0 0.00 0.00 0.00 89 1019.8
20191111140202 47 0 20.0 34.0 0.00 0.00 0.00 88 1019.0
20191111135202 49 348 20.0 38.0 0.00 0.00 0.00 87 1018.4
20191111134202 53 14 24.0 43.0 0.00 0.00 0.00 84 1017.7
20191111133202 57 343 13.0 28.0 0.00 0.00 0.00 83 1016.8
20191111132201 58 353 15.0 27.0 0.00 0.00 0.00 81 1016.4
20191111131202 59 6 18.0 30.0 0.00 0.00 0.00 79 1016.1
20191111130201 60 326 8.0 12.0 0.00 0.00 0.00 88 1015.6
20191111125202 60 293 4.0 7.0 0.00 0.00 0.00 89 1015.4
20191111124202 60 278 2.0 6.0 0.00 0.00 0.00 89 1015.1
20191111123203 60 276 4.0 9.0 0.00 0.00 0.00 89 1014.7
20191111122202 60 268 4.0 7.0 0.00 0.00 0.00 89 1014.3
20191111121202 61 278 2.0 12.0 0.00 0.00 0.00 88 1014.0
20191111120202 61 274 2.0 7.0 0.00 0.00 0.00 88 1013.5
20191111115202 61 266 4.0 13.0 0.00 0.00 0.00 88 1013.1
20191111114202 61 227 5.0 19.0 0.00 0.00 0.00 88 1012.3
20191111113202 61 243 12.0 22.0 0.00 0.00 0.00 88 1011.7
20191111112202 61 234 15.0 22.0 0.00 0.00 0.00 88 1011.5
20191111111202 61 235 15.0 26.0 0.00 0.00 0.00 88 1011.3
20191111110201 61 217 19.0 32.0 0.00 0.00 0.00 88 1011.2
20191111105202 61 234 21.0 29.0 0.00 0.00 0.00 88 1010.9
20191111104201 60 228 18.0 28.0 0.00 0.00 0.00 89 1011.0
20191111103202 60 202 18.0 24.0 0.00 0.00 0.00 89 1010.8
20191111102203 60 237 16.0 24.0 0.00 0.00 0.00 89 1010.9
20191111101201 60 224 19.0 27.0 0.00 0.00 0.00 89 1010.8
20191111100202 60 220 18.0 27.0 0.00 0.00 0.00 89 1010.9
20191111095202 60 227 21.0 31.0 0.00 0.00 0.00 89 1010.9
20191111094201 60 227 21.0 29.0 0.00 0.00 0.00 88 1011.2
20191111093202 60 227 16.0 28.0 0.00 0.00 0.00 88 1011.0
20191111092202 60 212 21.0 28.0 0.00 0.00 0.00 88 1010.9
20191111091202 60 213 22.0 31.0 0.00 0.00 0.00 88 1010.7
20191111090202 60 214 24.0 34.0 0.00 0.00 0.00 88 1010.8
20191111085202 60 221 23.0 33.0 0.00 0.00 0.00 87 1010.6
20191111084203 60 234 23.0 31.0 0.00 0.00 0.00 87 1010.7
20191111083201 60 237 22.0 32.0 0.00 0.00 0.00 87 1010.8
20191111082203 60 217 21.0 31.0 0.00 0.00 0.00 87 1010.8
20191111081203 60 195 22.0 33.0 0.00 0.00 0.00 87 1011.0
20191111080202 60 203 23.0 35.0 0.00 0.00 0.00 87 1010.9
20191111075203 60 228 22.0 31.0 0.00 0.00 0.00 87 1010.9
20191111074202 60 227 23.0 31.0 0.00 0.00 0.00 87 1010.8
20191111073202 60 217 23.0 33.0 0.00 0.00 0.00 87 1010.8
20191111072203 60 227 21.0 30.0 0.00 0.00 0.00 87 1010.9
20191111071202 60 227 23.0 34.0 0.00 0.00 0.00 86 1010.9
20191111070200 60 213 24.0 34.0 0.00 0.00 0.00 86 1010.8
20191111065201 60 230 24.0 32.0 0.00 0.00 0.00 86 1010.9
20191111064204 60 224 27.0 35.0 0.00 0.00 0.00 86 1010.9
20191111063201 60 216 22.0 32.0 0.00 0.00 0.00 85 1011.0
20191111062200 61 192 24.0 34.0 0.00 0.00 0.00 85 1011.2
20191111061200 61 230 20.0 34.0 0.00 0.00 0.00 85 1011.3
20191111060200 61 214 23.0 33.0 0.00 0.00 0.00 84 1011.3
20191111055201 61 189 22.0 35.0 0.00 0.00 0.00 84 1011.4
20191111054200 62 217 25.0 32.0 0.00 0.00 0.00 84 1011.4
20191111053159 62 251 23.0 33.0 0.00 0.00 0.00 83 1011.4
20191111052200 62 228 25.0 32.0 0.00 0.00 0.00 82 1011.4